Time,TemperatureF,DewpointF,PressureIn,WindDirection,WindDirectionDegrees,WindSpeedMPH,WindSpeedGustMPH,Humidity,HourlyPrecipIn,Conditions,Clouds,dailyrainin,SoftwareType,DateUTC
2013-01-18 00:04:00,53.9,17.0,30.19,ESE,109,2.0,4.0,23,0.00,,,0.00,weatherlink.com 1.10,2013-01-18 07:04:00,
2013-01-18 00:19:00,54.1,17.0,30.19,ESE,107,2.0,4.0,23,0.00,,,0.00,weatherlink.com 1.10,2013-01-18 07:19:00,
2013-01-18 00:34:00,53.4,17.0,30.19,ESE,117,3.0,4.0,24,0.00,,,0.00,weatherlink.com 1.10,2013-01-18 07:34:00,
2013-01-18 00:49:00,53.0,17.0,30.19,ESE,113,5.0,5.0,24,0.00,,,0.00,weatherlink.com 1.10,2013-01-18 07:49:00,
2013-01-18 01:05:00,52.6,17.0,30.19,SE,131,1.0,6.0,24,0.00,,,0.00,weatherlink.com 1.10,2013-01-18 08:05:00,
2013-01-18 01:20:00,51.8,17.0,30.20,ESE,113,4.0,5.0,25,0.00,,,0.00,weatherlink.com 1.10,2013-01-18 08:20:00,
2013-01-18 01:35:00,50.8,17.0,30.20,SE,139,3.0,5.0,26,0.00,,,0.00,weatherlink.com 1.10,2013-01-18 08:35:00,
2013-01-18 01:50:00,50.0,17.0,30.20,SE,138,1.0,4.0,27,0.00,,,0.00,weatherlink.com 1.10,2013-01-18 08:50:00,
2013-01-18 02:05:00,49.6,17.0,30.20,SE,134,2.0,5.0,27,0.00,,,0.00,weatherlink.com 1.10,2013-01-18 09:05:00,
2013-01-18 02:20:00,48.5,17.0,30.20,ESE,102,3.0,4.0,28,0.00,,,0.00,weatherlink.com 1.10,2013-01-18 09:20:00,
2013-01-18 02:35:00,48.3,17.0,30.19,SE,124,3.0,4.0,29,0.00,,,0.00,weatherlink.com 1.10,2013-01-18 09:35:00,
2013-01-18 02:50:00,47.9,17.0,30.19,ESE,117,3.0,5.0,29,0.00,,,0.00,weatherlink.com 1.10,2013-01-18 09:50:00,
2013-01-18 03:05:00,47.8,17.0,30.19,East,91,3.0,6.0,29,0.00,,,0.00,weatherlink.com 1.10,2013-01-18 10:05:00,
2013-01-18 03:20:00,47.8,17.0,30.19,South,183,5.0,6.0,29,0.00,,,0.00,weatherlink.com 1.10,2013-01-18 10:20:00,
2013-01-18 03:35:00,47.6,17.0,30.19,SE,131,4.0,7.0,29,0.00,,,0.00,weatherlink.com 1.10,2013-01-18 10:35:00,
2013-01-18 03:50:00,47.0,17.0,30.19,SE,135,6.0,9.0,30,0.00,,,0.00,weatherlink.com 1.10,2013-01-18 10:50:00,
2013-01-18 04:05:00,46.6,17.0,30.19,SE,144,5.0,9.0,30,0.00,,,0.00,weatherlink.com 1.10,2013-01-18 11:05:00,
2013-01-18 04:20:00,46.5,16.0,30.18,East,79,3.0,8.0,30,0.00,,,0.00,weatherlink.com 1.10,2013-01-18 11:20:00,
2013-01-18 04:35:00,46.3,17.0,30.18,SE,128,5.0,8.0,31,0.00,,,0.00,weatherlink.com 1.10,2013-01-18 11:35:00,
2013-01-18 04:50:00,46.9,17.0,30.18,SE,146,3.0,8.0,30,0.00,,,0.00,weatherlink.com 1.10,2013-01-18 11:50:00,
2013-01-18 05:05:00,47.3,17.0,30.18,SE,131,4.0,9.0,30,0.00,,,0.00,weatherlink.com 1.10,2013-01-18 12:05:00,
2013-01-18 05:20:00,47.2,17.0,30.18,SE,136,3.0,9.0,30,0.00,,,0.00,weatherlink.com 1.10,2013-01-18 12:20:00,
2013-01-18 05:35:00,46.9,17.0,30.18,ESE,102,6.0,7.0,30,0.00,,,0.00,weatherlink.com 1.10,2013-01-18 12:35:00,
2013-01-18 05:50:00,46.5,17.0,30.18,SE,135,1.0,7.0,31,0.00,,,0.00,weatherlink.com 1.10,2013-01-18 12:50:00,
2013-01-18 06:05:00,46.4,18.0,30.18,ENE,74,3.0,8.0,32,0.00,,,0.00,weatherlink.com 1.10,2013-01-18 13:05:00,
2013-01-18 06:20:00,46.3,18.0,30.19,ESE,103,5.0,7.0,32,0.00,,,0.00,weatherlink.com 1.10,2013-01-18 13:20:00,
2013-01-18 06:35:00,45.9,18.0,30.19,South,174,6.0,7.0,33,0.00,,,0.00,weatherlink.com 1.10,2013-01-18 13:35:00,
2013-01-18 06:50:00,45.8,18.0,30.19,SE,124,3.0,7.0,33,0.00,,,0.00,weatherlink.com 1.10,2013-01-18 13:50:00,
2013-01-18 07:05:00,46.1,18.0,30.20,ESE,110,7.0,10.0,33,0.00,,,0.00,weatherlink.com 1.10,2013-01-18 14:05:00,
2013-01-18 07:20:00,46.1,18.0,30.20,SE,125,5.0,8.0,33,0.00,,,0.00,weatherlink.com 1.10,2013-01-18 14:20:00,
2013-01-18 07:35:00,46.5,19.0,30.20,East,91,4.0,9.0,33,0.00,,,0.00,weatherlink.com 1.10,2013-01-18 14:35:00,
2013-01-18 07:50:00,47.2,19.0,30.20,East,96,5.0,10.0,32,0.00,,,0.00,weatherlink.com 1.10,2013-01-18 14:50:00,
2013-01-18 08:05:00,47.9,18.0,30.20,ESE,117,7.0,11.0,31,0.00,,,0.00,weatherlink.com 1.10,2013-01-18 15:05:00,
2013-01-18 08:20:00,48.4,19.0,30.20,East,98,4.0,7.0,31,0.00,,,0.00,weatherlink.com 1.10,2013-01-18 15:20:00,
2013-01-18 08:35:00,49.1,19.0,30.21,SE,126,4.0,7.0,31,0.00,,,0.00,weatherlink.com 1.10,2013-01-18 15:35:00,
2013-01-18 08:50:00,50.5,19.0,30.22,SE,146,4.0,9.0,29,0.00,,,0.00,weatherlink.com 1.10,2013-01-18 15:50:00,
2013-01-18 09:05:00,52.1,20.0,30.22,SE,136,10.0,11.0,28,0.00,,,0.00,weatherlink.com 1.10,2013-01-18 16:05:00,
2013-01-18 09:20:00,53.3,19.0,30.22,SE,137,4.0,10.0,26,0.00,,,0.00,weatherlink.com 1.10,2013-01-18 16:20:00,
2013-01-18 09:35:00,54.7,19.0,30.23,SE,132,5.0,8.0,25,0.00,,,0.00,weatherlink.com 1.10,2013-01-18 16:35:00,
2013-01-18 09:51:00,56.0,20.0,30.23,SE,139,7.0,7.0,25,0.00,,,0.00,weatherlink.com 1.10,2013-01-18 16:51:00,
2013-01-18 10:06:00,57.4,21.0,30.23,ESE,104,4.0,9.0,24,0.00,,,0.00,weatherlink.com 1.10,2013-01-18 17:06:00,
2013-01-18 10:21:00,59.1,20.0,30.23,SSE,167,6.0,7.0,22,0.00,,,0.00,weatherlink.com 1.10,2013-01-18 17:21:00,
2013-01-18 10:36:00,60.8,20.0,30.23,ENE,63,2.0,7.0,21,0.00,,,0.00,weatherlink.com 1.10,2013-01-18 17:36:00,
2013-01-18 10:51:00,62.6,20.0,30.22,SSE,168,4.0,6.0,19,0.00,,,0.00,weatherlink.com 1.10,2013-01-18 17:51:00,
2013-01-18 11:06:00,64.0,21.0,30.21,ESE,103,2.0,6.0,19,0.00,,,0.00,weatherlink.com 1.10,2013-01-18 18:06:00,
2013-01-18 11:21:00,65.8,20.0,30.20,East,101,2.0,7.0,17,0.00,,,0.00,weatherlink.com 1.10,2013-01-18 18:21:00,
2013-01-18 11:36:00,67.1,18.0,30.20,East,82,3.0,8.0,15,0.00,,,0.00,weatherlink.com 1.10,2013-01-18 18:36:00,
2013-01-18 11:51:00,67.8,18.0,30.19,East,79,2.0,7.0,15,0.00,,,0.00,weatherlink.com 1.10,2013-01-18 18:51:00,
2013-01-18 12:06:00,68.3,17.0,30.17,NE,47,3.0,7.0,14,0.00,,,0.00,weatherlink.com 1.10,2013-01-18 19:06:00,
2013-01-18 12:21:00,69.7,18.0,30.16,WNW,293,1.0,5.0,14,0.00,,,0.00,weatherlink.com 1.10,2013-01-18 19:21:00,
2013-01-18 12:36:00,70.0,19.0,30.15,East,91,0.0,7.0,14,0.00,,,0.00,weatherlink.com 1.10,2013-01-18 19:36:00,
2013-01-18 12:51:00,70.7,17.0,30.14,ENE,64,0.0,5.0,13,0.00,,,0.00,weatherlink.com 1.10,2013-01-18 19:51:00,
2013-01-18 13:06:00,70.9,18.0,30.13,SE,130,3.0,5.0,13,0.00,,,0.00,weatherlink.com 1.10,2013-01-18 20:06:00,
2013-01-18 13:21:00,71.8,16.0,30.13,ESE,113,2.0,5.0,12,0.00,,,0.00,weatherlink.com 1.10,2013-01-18 20:21:00,
2013-01-18 13:36:00,72.2,17.0,30.12,NE,47,1.0,6.0,12,0.00,,,0.00,weatherlink.com 1.10,2013-01-18 20:36:00,
2013-01-18 13:51:00,73.4,16.0,30.11,ESE,113,1.0,4.0,11,0.00,,,0.00,weatherlink.com 1.10,2013-01-18 20:51:00,
2013-01-18 14:07:00,74.1,16.0,30.11,SSE,159,1.0,4.0,11,0.00,,,0.00,weatherlink.com 1.10,2013-01-18 21:07:00,
2013-01-18 14:22:00,73.4,16.0,30.11,WSW,248,3.0,6.0,11,0.00,,,0.00,weatherlink.com 1.10,2013-01-18 21:22:00,
2013-01-18 14:37:00,72.9,15.0,30.11,SE,138,1.0,5.0,11,0.00,,,0.00,weatherlink.com 1.10,2013-01-18 21:37:00,
2013-01-18 14:52:00,73.2,13.0,30.11,SE,146,1.0,5.0,10,0.00,,,0.00,weatherlink.com 1.10,2013-01-18 21:52:00,
2013-01-18 15:07:00,72.9,15.0,30.10,NW,321,1.0,4.0,11,0.00,,,0.00,weatherlink.com 1.10,2013-01-18 22:07:00,
2013-01-18 15:22:00,73.4,16.0,30.10,East,85,2.0,5.0,11,0.00,,,0.00,weatherlink.com 1.10,2013-01-18 22:22:00,
2013-01-18 15:37:00,74.0,14.0,30.10,NNW,342,0.0,2.0,10,0.00,,,0.00,weatherlink.com 1.10,2013-01-18 22:37:00,
2013-01-18 15:52:00,74.7,15.0,30.09,North,10,1.0,3.0,10,0.00,,,0.00,weatherlink.com 1.10,2013-01-18 22:52:00,
2013-01-18 16:07:00,73.5,16.0,30.09,NE,40,3.0,3.0,11,0.00,,,0.00,weatherlink.com 1.10,2013-01-18 23:07:00,
2013-01-18 16:22:00,74.1,16.0,30.09,North,358,0.0,3.0,11,0.00,,,0.00,weatherlink.com 1.10,2013-01-18 23:22:00,
2013-01-18 16:37:00,73.9,14.0,30.10,WNW,293,2.0,3.0,10,0.00,,,0.00,weatherlink.com 1.10,2013-01-18 23:37:00,
2013-01-18 16:52:00,72.4,15.0,30.09,NNW,340,0.0,3.0,11,0.00,,,0.00,weatherlink.com 1.10,2013-01-18 23:52:00,
2013-01-18 17:07:00,71.3,16.0,30.10,NNW,335,0.0,1.0,12,0.00,,,0.00,weatherlink.com 1.10,2013-01-19 00:07:00,
2013-01-18 17:22:00,70.3,17.0,30.10,NNW,334,0.0,0.0,13,0.00,,,0.00,weatherlink.com 1.10,2013-01-19 00:22:00,
2013-01-18 17:37:00,68.0,19.0,30.11,ENE,62,0.0,1.0,15,0.00,,,0.00,weatherlink.com 1.10,2013-01-19 00:37:00,
2013-01-18 17:52:00,66.7,17.0,30.11,NW,312,0.0,2.0,15,0.00,,,0.00,weatherlink.com 1.10,2013-01-19 00:52:00,
2013-01-18 18:07:00,65.4,18.0,30.12,NW,312,0.0,1.0,16,0.00,,,0.00,weatherlink.com 1.10,2013-01-19 01:07:00,
2013-01-18 18:22:00,63.4,19.0,30.12,WNW,290,1.0,2.0,18,0.00,,,0.00,weatherlink.com 1.10,2013-01-19 01:22:00,
2013-01-18 18:37:00,62.5,23.0,30.13,WNW,291,0.0,3.0,22,0.00,,,0.00,weatherlink.com 1.10,2013-01-19 01:37:00,
2013-01-18 18:52:00,61.5,23.0,30.13,WNW,294,1.0,3.0,23,0.00,,,0.00,weatherlink.com 1.10,2013-01-19 01:52:00,
2013-01-18 19:07:00,60.9,24.0,30.13,WSW,248,1.0,2.0,24,0.00,,,0.00,weatherlink.com 1.10,2013-01-19 02:07:00,
2013-01-18 19:22:00,60.1,23.0,30.14,WSW,256,2.0,3.0,24,0.00,,,0.00,weatherlink.com 1.10,2013-01-19 02:22:00,
2013-01-18 19:37:00,58.9,24.0,30.14,SW,233,0.0,1.0,26,0.00,,,0.00,weatherlink.com 1.10,2013-01-19 02:37:00,
2013-01-18 19:52:00,57.0,24.0,30.14,SSE,153,0.0,0.0,28,0.00,,,0.00,weatherlink.com 1.10,2013-01-19 02:52:00,
2013-01-18 20:07:00,56.1,24.0,30.14,WSW,247,0.0,1.0,29,0.00,,,0.00,weatherlink.com 1.10,2013-01-19 03:07:00,
2013-01-18 20:22:00,55.8,24.0,30.14,WSW,242,1.0,2.0,29,0.00,,,0.00,weatherlink.com 1.10,2013-01-19 03:22:00,
2013-01-18 20:37:00,54.0,24.0,30.14,WSW,239,0.0,0.0,31,0.00,,,0.00,weatherlink.com 1.10,2013-01-19 03:37:00,
2013-01-18 20:52:00,52.7,24.0,30.14,ESE,112,0.0,1.0,33,0.00,,,0.00,weatherlink.com 1.10,2013-01-19 03:52:00,
2013-01-18 21:07:00,51.6,24.0,30.14,ESE,119,0.0,1.0,34,0.00,,,0.00,weatherlink.com 1.10,2013-01-19 04:07:00,
2013-01-18 21:22:00,50.2,24.0,30.15,East,86,0.0,1.0,36,0.00,,,0.00,weatherlink.com 1.10,2013-01-19 04:22:00,
2013-01-18 21:37:00,49.3,24.0,30.15,ESE,118,2.0,2.0,37,0.00,,,0.00,weatherlink.com 1.10,2013-01-19 04:37:00,
2013-01-18 21:52:00,48.9,23.0,30.15,ESE,107,0.0,2.0,36,0.00,,,0.00,weatherlink.com 1.10,2013-01-19 04:52:00,
2013-01-18 22:07:00,48.5,22.0,30.15,ESE,112,0.0,1.0,35,0.00,,,0.00,weatherlink.com 1.10,2013-01-19 05:07:00,
2013-01-18 22:22:00,47.9,21.0,30.16,ESE,116,0.0,2.0,35,0.00,,,0.00,weatherlink.com 1.10,2013-01-19 05:22:00,
2013-01-18 22:37:00,46.5,21.0,30.16,East,96,1.0,2.0,36,0.00,,,0.00,weatherlink.com 1.10,2013-01-19 05:37:00,
2013-01-18 22:52:00,46.4,19.0,30.16,ESE,113,2.0,3.0,34,0.00,,,0.00,weatherlink.com 1.10,2013-01-19 05:52:00,
2013-01-18 23:07:00,46.7,20.0,30.16,ESE,113,2.0,2.0,34,0.00,,,0.00,weatherlink.com 1.10,2013-01-19 06:07:00,
2013-01-18 23:22:00,46.1,19.0,30.16,SE,130,2.0,2.0,34,0.00,,,0.00,weatherlink.com 1.10,2013-01-19 06:22:00,
2013-01-18 23:37:00,45.7,19.0,30.16,ESE,115,2.0,4.0,34,0.00,,,0.00,weatherlink.com 1.10,2013-01-19 06:37:00,
2013-01-18 23:52:00,46.1,19.0,30.16,ESE,117,2.0,3.0,34,0.00,,,0.00,weatherlink.com 1.10,2013-01-19 06:52:00,